TimeCST,TemperatureF,Dew PointF,Humidity,Sea Level PressureIn,VisibilityMPH,Wind Direction,Wind SpeedMPH,Gust SpeedMPH,PrecipitationIn,Events,Conditions,WindDirDegrees,DateUTC
12:53 AM,19.0,15.1,85,29.86,10.0,North,6.9,-,N/A,,Overcast,350,2012-12-17 06:53:00
1:53 AM,19.0,15.1,85,29.86,10.0,Calm,Calm,-,N/A,,Overcast,0,2012-12-17 07:53:00
2:53 AM,18.0,14.0,84,29.86,10.0,North,4.6,-,N/A,,Overcast,350,2012-12-17 08:53:00
3:53 AM,18.0,12.9,81,29.84,10.0,Calm,Calm,-,N/A,,Overcast,0,2012-12-17 09:53:00
4:53 AM,17.1,12.9,84,29.82,10.0,NNE,3.5,-,N/A,,Overcast,20,2012-12-17 10:53:00
5:53 AM,17.1,12.0,81,29.82,10.0,Calm,Calm,-,N/A,,Overcast,0,2012-12-17 11:53:00
6:53 AM,17.1,12.9,84,29.81,10.0,North,4.6,-,N/A,,Overcast,350,2012-12-17 12:53:00
7:53 AM,16.0,12.0,84,29.81,9.0,Calm,Calm,-,N/A,,Overcast,0,2012-12-17 13:53:00
8:53 AM,16.0,12.9,88,29.81,7.0,Calm,Calm,-,N/A,,Overcast,0,2012-12-17 14:53:00
9:23 AM,17.6,12.2,79,29.76,2.5,Calm,Calm,-,N/A,,Overcast,0,2012-12-17 15:23:00
9:34 AM,17.6,12.2,79,29.76,4.0,Calm,Calm,-,N/A,,Overcast,0,2012-12-17 15:34:00
9:53 AM,17.1,12.9,84,29.81,3.0,Calm,Calm,-,N/A,,Overcast,0,2012-12-17 15:53:00
10:12 AM,17.6,12.2,79,29.76,2.5,Calm,Calm,-,N/A,,Overcast,0,2012-12-17 16:12:00
10:53 AM,18.0,12.9,81,29.80,2.5,Calm,Calm,-,N/A,,Haze,0,2012-12-17 16:53:00
11:16 AM,17.6,12.2,79,29.74,3.0,ESE,3.5,-,N/A,,Haze,110,2012-12-17 17:16:00
11:53 AM,18.0,14.0,84,29.78,2.0,SSE,3.5,-,0.00,Snow,Light Snow,160,2012-12-17 17:53:00
12:06 PM,17.6,14.0,86,29.72,5.0,East,4.6,-,0.00,,Overcast,90,2012-12-17 18:06:00
12:27 PM,17.6,14.0,86,29.71,1.8,East,5.8,-,0.00,,Overcast,100,2012-12-17 18:27:00
12:32 PM,19.4,14.0,80,29.71,3.0,East,4.6,-,0.00,,Haze,90,2012-12-17 18:32:00
12:53 PM,19.0,14.0,81,29.75,6.0,ESE,5.8,-,0.00,,Haze,110,2012-12-17 18:53:00
1:53 PM,19.9,14.0,78,29.72,8.0,SE,4.6,-,N/A,,Overcast,130,2012-12-17 19:53:00
2:53 PM,21.0,15.1,78,29.72,10.0,SE,4.6,-,N/A,,Overcast,140,2012-12-17 20:53:00
3:53 PM,21.0,15.1,78,29.72,10.0,South,5.8,-,N/A,,Overcast,170,2012-12-17 21:53:00
6:48 PM,21.2,17.6,86,29.67,9.0,Calm,Calm,-,N/A,,Overcast,0,2012-12-18 00:48:00
6:53 PM,21.9,17.1,82,29.72,9.0,Calm,Calm,-,N/A,,Overcast,0,2012-12-18 00:53:00
7:53 PM,21.9,17.1,82,29.70,9.0,SE,4.6,-,N/A,,Overcast,140,2012-12-18 01:53:00
8:53 PM,23.0,18.0,81,29.70,9.0,SE,4.6,-,N/A,,Overcast,140,2012-12-18 02:53:00
9:11 PM,23.0,17.6,80,29.66,9.0,SSE,4.6,-,N/A,,Overcast,150,2012-12-18 03:11:00
9:53 PM,23.0,18.0,81,29.70,8.0,SSE,6.9,-,N/A,,Overcast,160,2012-12-18 03:53:00
10:53 PM,24.1,18.0,77,29.69,8.0,SSE,8.1,-,N/A,,Overcast,160,2012-12-18 04:53:00
11:53 PM,24.1,18.0,77,29.68,10.0,SSE,9.2,-,N/A,,Overcast,160,2012-12-18 05:53:00